Location: G�kdere
(37.0328°N, 30.9000°E)
Time: 19:39:10
(UTC+00:00)

Cosmos 2218 Rocket - Visible Passes

Search period start: 17 June 2021 00:00
Search period end: 27 June 2021 00:00
Orbit: 957 x 1005 km, 82.9° (Epoch: 16 June)

Date Brightness Start Highest point End Pass type
(mag) Time Alt. Az. Time Alt. Az. Time Alt. Az.
17 Jun 6.1 17:49:58 10° NNW 17:55:17 29° W 18:00:33 10° SW visible
18 Jun 6.7 18:18:41 10° NW 18:21:53 14° W 18:25:05 10° WSW visible
21 Jun 6.8 17:54:08 10° NW 17:57:40 16° W 18:01:10 10° WSW visible
